Miscellaneous Local Product
Issued by NWS Hastings, NE

Home | Current Version | Previous Version | Text Only | Print | Product List | Glossary Off
Versions: 1 2 3 4 5 6 7 8 9 10 11 12 13 14 15 16 17 18 19 20 21 22 23 24 25 26 27 28 29 30 31 32 33 34 35 36 37 38 39 40 41 42 43 44 45 46 47 48 49 50

000
AXUS43 KGID 041102
MISGRI

GID CWA HOURLY WEATHER ROUNDUP
NATIONAL WEATHER SERVICE HASTINGS NE
600 AM CDT SAT JUL 04 2015

NOTE: "FAIR" INDICATES FEW OR NO CLOUDS BELOW 12,000 FEET WITH NO
SIGNIFICANT WEATHER AND/OR OBSTRUCTIONS TO VISIBILITY.

...SOUTH CENTRAL NEBRASKA...

CITY           SKY/WX    TMP DP  RH WIND       PRES   REMARKS
GRAND ISLAND   CLEAR     62  60  93 CALM      30.00F FOG
HASTINGS       CLEAR     62  60  93 S5        30.00S
KEARNEY        CLEAR     61  57  88 S5        30.01S
ORD            PTCLDY    56  55  97 CALM      29.99S FOG
YORK           CLOUDY    59  59 100 S3        30.01R
AURORA         CLEAR     60  60 100 CALM      30.00S FOG
LEXINGTON      CLEAR     62  60  91 SE5       30.00S
HOLDREGE       CLEAR     58  56  93 SE5       30.00F FOG
HEBRON         CLEAR     59  57  92 CALM      30.00S FOG

...NEBRASKA PANHANDLE...

CITY           SKY/WX    TMP DP  RH WIND       PRES   REMARKS
CHADRON        PTCLDY    69  59  70 S13       29.89F
ALLIANCE       MOCLDY    64  59  83 SE10      29.96F
SCOTTSBLUFF    PTCLDY    66  60  81 E10       29.95F
SIDNEY         MOCLDY    64  60  87 S9        30.00F

...WESTERN AND NORTH CENTRAL NEBRASKA...

CITY           SKY/WX    TMP DP  RH WIND       PRES   REMARKS
VALENTINE      PTCLDY    64  60  87 SW9       29.94F
AINSWORTH      CLEAR     62  61  96 S6        29.97S
ONEILL         CLEAR     62  61  98 S5        29.98S FOG
BROKEN BOW     CLEAR     61  58  90 CALM      30.00S FOG
IMPERIAL       CLEAR     63  58  83 SE8       29.98F
NORTH PLATTE   PTCLDY    63  59  87 E6        29.99F
MCCOOK         CLEAR     63  59  87 E5        29.99S

...EASTERN NEBRASKA...

CITY           SKY/WX    TMP DP  RH WIND       PRES   REMARKS
NORFOLK        CLEAR     57  56  96 CALM      29.99S FOG
SO SIOUX CITY  CLEAR     57  53  86 E5        29.98F
TEKAMAH        CLEAR     54  52  93 CALM      29.99S
COLUMBUS         N/A     55  50  82 CALM      29.98S VSB<1/4
ALBION         CLEAR     60  58  93 CALM      30.00R FOG
OMAHA EPPLEY   CLEAR     59  57  93 CALM      29.99S FOG
OFFUTT AFB     CLEAR     51  51  99 E2        29.99R FOG
MILLARD        FOG       57  56  96 CALM      30.00R VSB 1/2
LINCOLN        CLEAR     59  57  93 CALM      30.00R FOG
NEBRASKA CITY  CLEAR     61  55  81 SE3       30.00R
BEATRICE       CLEAR     59  57  93 CALM      30.00R
FALLS CITY     CLEAR     58  57  97 SE3       29.99R

...NORTHERN KANSAS...

CITY           SKY/WX    TMP DP  RH WIND       PRES   REMARKS
GOODLAND       CLEAR     63  59  87 S10       30.00F
HILL CITY      PTCLDY    63  60  90 E5        30.00S
NORTON         SUNNY     61  55  82 E3        30.00R
PHILLIPSBURG   CLEAR     63  63 100 NE3       30.01R FOG
SMITH CENTER   CLEAR     61  59  94 E7        30.01S
HAYS           PTCLDY    63  55  77 CALM      30.01R
RUSSELL        PTCLDY    63  62  97 SE8       29.99R
CONCORDIA      CLEAR     58  55  90 SE3       30.00S
SALINA         CLEAR     65  58  78 CALM      30.00R
TOPEKA         CLEAR     60  59  96 CALM      29.99S FOG



USA.gov is the U.S. government's official web portal to all federal, state and local government web resources and services.